Flag for U.S.A. Weather past 2 weeks in Howell, Michigan, U.S.A.

Now
67 °F

Fog.


Feels Like: 67 °F
Forecast: 62 / 83 °F
Wind: No wind

Location: Livingston County Airport

Current Time: Aug 30, 2015 at 11:06:49 PM

Latest Report: Aug 30, 2015 at 10:35 PM


Visibility: 4 mi

Pressure: 30.05 "Hg

Humidity: 92%

Dew point: 65 °F

Location of HowellLocation

Historic Weather in Howell — Graph

°F

Howell temperature yesterday

Maximum temperature yesterday: 71 °F (at 4:15 PM)
Minimum temperature yesterday: 61 °F (at 7:35 AM)
Average temperature yesterday: 67 °F

Past Weeks' High & Low Weather Summary

 TemperatureHumidityPressure
High87 °F (Aug 16, 4:15 PM)100% (Aug 28, 7:55 AM)30.23 "Hg (Aug 28, 7:55 AM)
Low46 °F (Aug 28, 6:55 AM)33% (Aug 21, 3:55 PM)29.70 "Hg (Aug 19, 5:35 PM)
Average67 °F77%30.02 "Hg
* Reported Aug 15 9:15 PM — Aug 30 9:55 PM, Howell, Weather by CustomWeather, © 2015

Note: Actual official high and low records may vary slightly from our data, if they occured in-between our weather recording intervals... More about our weather records

Advertising

Howell weather history for previous 24 hours

 ConditionsComfort  
Time TempWeatherWind HumidityBarometerVisibility
9:55 PM
Sun, Aug 30
69 °FClear.No wind91%30.05 "Hg7 mi
9:35 PM71 °FClear.No wind88%30.05 "Hg7 mi
9:14 PM71 °FClear.No wind86%30.04 "Hg10 mi
8:55 PM72 °FSunny.No wind84%30.03 "Hg10 mi
8:35 PM73 °FSunny.No wind81%30.03 "Hg10 mi
8:14 PM74 °FSunny.No wind80%30.02 "Hg10 mi
7:55 PM74 °FSunny.5 mph77%30.02 "Hg10 mi
7:35 PM76 °FSunny.6 mph74%30.02 "Hg10 mi
7:14 PM77 °FSunny.6 mph70%30.02 "Hg10 mi
6:55 PM78 °FSunny.6 mph68%30.02 "Hg10 mi
6:34 PM79 °FScattered clouds.8 mph66%30.02 "Hg10 mi
6:14 PM79 °FScattered clouds.7 mph65%30.02 "Hg10 mi
5:34 PM79 °FScattered clouds.9 mph66%30.03 "Hg10 mi
5:15 PM80 °FScattered clouds.8 mph65%30.03 "Hg10 mi
4:55 PM81 °FScattered clouds.8 mph62%30.03 "Hg10 mi
4:34 PM80 °FPartly sunny.9 mph66%30.03 "Hg10 mi
4:14 PM80 °FMore clouds than sun.8 mph69%30.03 "Hg7 mi
3:34 PM80 °FMore clouds than sun.6 mph66%30.04 "Hg10 mi
3:15 PM79 °FMore clouds than sun.7 mph66%30.04 "Hg10 mi
2:55 PM80 °FMore clouds than sun.6 mph65%30.05 "Hg10 mi
2:34 PM80 °FMore clouds than sun.6 mph68%30.06 "Hg10 mi
2:15 PM78 °FCloudy.7 mph72%30.06 "Hg10 mi
1:55 PM79 °FMore clouds than sun.9 mph71%30.06 "Hg10 mi
1:34 PM78 °FMore clouds than sun.8 mph73%30.06 "Hg7 mi
1:15 PM77 °FBroken clouds.6 mph73%30.07 "Hg10 mi
12:54 PM76 °FMostly cloudy.7 mph76%30.07 "Hg10 mi
12:35 PM75 °FOvercast.7 mph78%30.08 "Hg7 mi
12:15 PM75 °FPartly sunny.8 mph79%30.08 "Hg7 mi
11:54 AM74 °FPartly sunny.7 mph85%30.08 "Hg7 mi
11:35 AM72 °FFog.7 mph90%30.09 "Hg5 mi
11:15 AM70 °FFog.No wind92%30.09 "Hg5 mi
10:54 AM69 °FFog.No wind93%30.09 "Hg5 mi
10:35 AM69 °FCloudy.6 mph93%30.09 "Hg7 mi
10:15 AM69 °FMostly cloudy.5 mph94%30.09 "Hg7 mi
9:55 AM68 °FOvercast.5 mph94%30.09 "Hg7 mi
9:35 AM68 °FMostly cloudy.3 mph95%30.08 "Hg7 mi
9:14 AM68 °FFog.5 mph95%30.08 "Hg5 mi
8:55 AM67 °FFog.3 mph97%30.08 "Hg4 mi
8:35 AM67 °FFog.No wind97%30.08 "Hg4 mi
8:14 AM67 °FFog.No wind98%30.07 "Hg3 mi
7:55 AM67 °FFog.No wind99%30.07 "Hg2 mi
7:35 AM66 °FFog.No wind98%30.07 "Hg2 mi
7:14 AM66 °FFog.No wind98%30.06 "Hg2 mi
6:55 AM66 °FFog.3 mph98%30.06 "Hg2 mi
6:35 AM66 °FFog.No wind99%30.05 "Hg2 mi
6:14 AM66 °FFog.No wind98%30.05 "Hg2 mi
5:55 AM66 °FFog.No wind98%30.05 "Hg2 mi
5:35 AM66 °FFog.No wind98%30.05 "Hg2 mi
5:14 AM66 °FFog.3 mph99%30.04 "Hg3 mi
4:55 AM66 °FLight rain. Mostly cloudy.No wind98%30.03 "Hg3 mi
4:35 AM66 °FFog.3 mph98%30.03 "Hg3 mi
4:14 AM66 °FFog.3 mph99%30.03 "Hg3 mi
3:55 AM66 °FFog.No wind99%30.04 "Hg2 mi
3:35 AM66 °FLight rain. Mostly cloudy.3 mph98%30.04 "Hg2 mi
3:14 AM66 °FFog.No wind98%30.04 "Hg3 mi
2:55 AM66 °FFog.3 mph98%30.05 "Hg3 mi
2:35 AM66 °FFog.5 mph98%30.05 "Hg3 mi
2:15 AM66 °FFog.No wind98%30.05 "Hg3 mi
1:55 AM66 °FFog.6 mph98%30.05 "Hg3 mi
1:35 AM66 °FFog.5 mph98%30.06 "Hg2 mi
1:15 AM66 °FFog.5 mph98%30.06 "Hg2 mi
12:55 AM66 °FFog.5 mph99%30.06 "Hg2 mi
12:35 AM66 °FFog.3 mph99%30.06 "Hg2 mi
11:55 PM
Sat, Aug 29
66 °FFog.5 mph99%30.07 "Hg2 mi
11:34 PM67 °FFog.6 mph99%30.08 "Hg2 mi
11:15 PM67 °FFog.No wind99%30.08 "Hg2 mi
Weather by CustomWeather, © 2015

See weather overviewHow to use our weather pages